gapinc.com alexa rank chart, gapinc.com alexa rank daily changes

gapinc.com alexa rank chart, gapinc.com alexa rank daily changes

gapinc.com
Actual rank:
54 568

RANK HISTORY

Date Rank Diff
2017/12/14 54 568 -5
2017/12/13 54 573 -109
2017/12/12 54 682 +609
2017/12/11 54 073 +1 351
2017/12/10 52 722 +969
2017/12/09 51 753 +1 374
2017/12/08 50 379 +102
2017/12/07 50 277 +153
2017/12/06 50 124 +560
2017/12/05 49 564 +1 335
2017/12/04 48 229 +932
2017/12/03 47 297 +215
2017/12/02 47 082 +76
2017/12/01 47 006 +702
2017/11/30 46 304 +175
2017/11/29 46 129 +347
2017/11/28 45 782 -385
2017/11/27 46 167 +1 180
2017/11/26 44 987 +382
2017/11/25 44 605 +1 061
2017/11/24 43 544 +58
2017/11/23 43 486 +187
2017/11/22 43 299 +663
2017/11/21 42 636 -284
2017/11/20 42 920 +723
2017/11/19 42 197 +93
2017/11/18 42 104 +65
2017/11/17 42 039 -405
2017/11/16 42 444 -132
2017/11/15 42 576 -937
2017/11/14 43 513 +404
2017/11/13 43 109 +150
2017/11/12 42 959 +626
2017/11/11 42 333 -338
2017/11/10 42 671 -429
2017/11/09 43 100 -734
2017/11/08 43 834 +63
2017/11/07 43 771 +229
2017/11/06 43 542 -121
2017/11/05 43 663 -171
2017/11/04 43 834 -230
2017/11/03 44 064 -477
2017/11/02 44 541 -702
2017/11/01 45 243 -445
2017/10/31 45 688 +781
2017/10/30 44 907 +461
2017/10/29 44 446 +435
2017/10/28 44 011 +694
2017/10/27 43 317 -206
2017/10/26 43 523 -157
2017/10/25 43 680 -633
2017/10/24 44 313 +363
2017/10/23 43 950 +379
2017/10/22 43 571 -145
2017/10/21 43 716 +649
2017/10/20 43 067 +2
2017/10/19 43 065 -125
2017/10/18 43 190 -125
2017/10/17 43 315 +757
2017/10/16 42 558

WIDGET FOR YOUR SITE

DOMAINS WITH THE NEAREST RANK

Domain Rank
schoo.jp 54 563
putlockers.tv 54 564
823bc1a6cd3f1657.com 54 565
metronieuws.nl 54 566
pitchero.com 54 567
gapinc.com 54 568
bpm-power.com 54 569
sg.hu 54 570
latextemplates.com 54 571
abercrombie.cn 54 572
recovery-android.com 54 573

DOMAINS WITH THE NEAREST RANK BY TLD .com

Domain Rank
izbrannoe.com 54 560
rbauction.com 54 561
centralreach.com 54 562
823bc1a6cd3f1657.com 54 565
pitchero.com 54 567
gapinc.com 54 568
bpm-power.com 54 569
latextemplates.com 54 571
recovery-android.com 54 573
celemony.com 54 574
postize.com 54 578